User: anonymous
Location: Unspecified
(0.0000°N, 0.0000°E)
Time: 14:59:58
(UTC+02:00)
Language:

CZ-4B R/B - Orbit

View from above orbital plane
View from above orbital plane
View from above satellite
View from above satellite

Ground track
Ground track

The orbit data is extracted from the following two-line orbital elements,

1 33410U 08053C   14205.94718282  .00000704  00000-0  60870-4 0  8737
2 33410 097.5885 182.0693 0131753 139.1957 221.9221 14.93900733312485
Epoch (UTC): 24 July 2014 22:43:56
Eccentricity: 0.0131753
inclination: 97.5885°
perigee height: 494 km
apogee height: 677 km
right ascension of ascending node: 182.0693°
argument of perigee: 139.1957°
revolutions per day: 14.93900733
mean anomaly at epoch: 221.9221°
orbit number at epoch: 31248

The dashed part of the orbit path shows where the satellite is in the earth's shadow,  

DLR